Akron, OH

12:45 PM EST on February 26, 2017 (GMT -0500)
Akron Fulton International

Weather History for KAKR - April, 2013

Change the Weather History Date:

Sunday, April 28, 2013

  Actual Average (KCAK) Record (KCAK)
Temperature  
Mean Temperature 52 °F -  
Max Temperature 57 °F 63 °F 88 °F (1986)
Min Temperature 46 °F 41 °F 25 °F (1947)
Degree Days  
Heating Degree Days 14    
Growing Degree Days 2 (Base 50)    
Moisture  
Dew Point 50 °F    
Average Humidity 86    
Maximum Humidity 100    
Minimum Humidity 51    
Precipitation  
Precipitation 0.48 in - - ()
Sea Level Pressure  
Sea Level Pressure 29.96 in    
Wind  
Wind Speed 4 mph (SSE)    
Max Wind Speed 9 mph    
Max Gust Speed -    
Visibility 7 miles    
Events Rain    
Averages and records for this station are not official NWS values.
T = Trace of Precipitation, MM = Missing Value Source: NWS Daily Summary

Daily Weather History Graph

Daily Weather History Graph

Search for Another Location

Airport or City:

Trip Planner

Search our weather history database for the weather conditions in past years. The results will help you decide how hot, cold, wet, or windy it might be!

Date:

Astronomy

Apr. 28, 2013 Rise Set
Actual Time 6:27 AM EDT 8:19 PM EDT
Civil Twilight 5:57 AM EDT 8:49 PM EDT
Nautical Twilight 5:21 AM EDT 9:25 PM EDT
Astronomical Twilight 4:43 AM EDT 10:04 PM EDT
Moon 11:49 PM EDT (4/28) 8:41 AM EDT (4/28)
Length of Visible Light 14h 51m
Length of Day
13h 52m
Waning Gibbous, 89% of the Moon is Illuminated
Apr 28
Waning Gibbous
May 2
Last Quarter
May 9
New
May 18
First Quarter
May 25
Full

Hourly Weather History & Observations

Time (EDT) Temp. Dew Point Humidity Pressure Visibility Wind Dir Wind Speed Gust Speed Precip Events Conditions
12:54 AM 46.0 °F 39.9 °F 79% 30.11 in 7.0 mi Calm Calm - N/A   Clear
1:54 AM 54.0 °F 36.0 °F 51% 30.10 in 10.0 mi SSE 4.6 mph - N/A   Clear
2:54 AM 46.9 °F 37.9 °F 71% 30.07 in 10.0 mi Calm Calm - N/A   Clear
3:54 AM 50.0 °F 39.0 °F 66% 30.06 in 10.0 mi ESE 3.5 mph - N/A   Clear
4:54 AM 54.0 °F 37.9 °F 55% 30.05 in 10.0 mi Calm Calm - N/A   Overcast
5:54 AM 54.0 °F 39.9 °F 59% 30.04 in 10.0 mi Calm Calm - N/A   Partly Cloudy
6:54 AM 55.0 °F 39.9 °F 57% 30.03 in 10.0 mi Calm Calm - N/A   Overcast
7:54 AM 55.0 °F 41.0 °F 59% 30.03 in 10.0 mi Variable 3.5 mph - N/A   Scattered Clouds
8:54 AM 55.4 °F 42.8 °F 63% 30.03 in 10.0 mi SE 3.5 mph - N/A Rain Light Rain
9:54 AM 53.1 °F 46.0 °F 77% 30.04 in 5.0 mi South 5.8 mph - 0.02 in Rain Light Rain
10:47 AM 51.8 °F 48.2 °F 88% 30.02 in 4.0 mi Variable 4.6 mph - 0.09 in Rain Light Rain
10:54 AM 52.0 °F 48.9 °F 89% 30.02 in 4.0 mi Variable 6.9 mph - 0.09 in Rain Light Rain
11:07 AM 51.8 °F 48.2 °F 88% 30.01 in 5.0 mi Variable 4.6 mph - 0.01 in Rain Light Rain
11:54 AM 53.1 °F 50.0 °F 89% 30.01 in 5.0 mi Variable 6.9 mph - 0.05 in Rain Light Rain
12:30 PM 53.6 °F 51.8 °F 94% 29.99 in 1.8 mi SSE 4.6 mph - 0.05 in Rain Light Rain
12:35 PM 53.6 °F 51.8 °F 94% 29.99 in 1.8 mi Variable 5.8 mph - 0.06 in Rain Light Rain
12:42 PM 53.6 °F 51.8 °F 94% 29.98 in 2.0 mi Variable 5.8 mph - 0.07 in Rain Light Rain
12:54 PM 53.1 °F 51.1 °F 93% 29.99 in 3.0 mi SSE 5.8 mph - 0.08 in Rain Light Rain
1:11 PM 53.6 °F 51.8 °F 94% 29.97 in 2.0 mi Variable 5.8 mph - 0.01 in Rain Light Rain
1:33 PM 53.6 °F 51.8 °F 94% 29.96 in 4.0 mi Variable 6.9 mph - 0.03 in Rain Light Rain
1:54 PM 54.0 °F 52.0 °F 93% 29.96 in 6.0 mi SSE 6.9 mph - 0.04 in Rain Light Rain
2:24 PM 55.4 °F 51.8 °F 88% 29.96 in 10.0 mi SSE 9.2 mph - 0.01 in   Overcast
2:54 PM 55.0 °F 53.1 °F 93% 29.95 in 7.0 mi SSE 9.2 mph - 0.01 in   Overcast
3:30 PM 55.4 °F 53.6 °F 94% 29.94 in 10.0 mi Variable 4.6 mph - 0.00 in Rain Light Rain
3:39 PM 55.4 °F 53.6 °F 94% 29.93 in 10.0 mi SSE 6.9 mph - 0.00 in Rain Light Rain
3:54 PM 55.9 °F 53.1 °F 90% 29.93 in 10.0 mi SSE 6.9 mph - 0.00 in   Overcast
4:29 PM 55.4 °F 53.6 °F 94% 29.92 in 6.0 mi South 5.8 mph - 0.00 in Rain Light Rain
4:38 PM 55.4 °F 53.6 °F 94% 29.92 in 4.0 mi South 6.9 mph - 0.00 in Rain Light Rain
4:54 PM 55.9 °F 53.1 °F 90% 29.91 in 10.0 mi South 6.9 mph - 0.00 in   Overcast
5:02 PM 57.2 °F 53.6 °F 88% 29.91 in 10.0 mi Variable 4.6 mph - N/A   Overcast
5:10 PM 57.2 °F 53.6 °F 88% 29.90 in 10.0 mi Variable 4.6 mph - N/A   Overcast
5:26 PM 57.2 °F 53.6 °F 88% 29.91 in 8.0 mi South 8.1 mph - 0.00 in Rain Light Rain
5:40 PM 55.4 °F 53.6 °F 94% 29.91 in 7.0 mi SSE 4.6 mph - 0.01 in Rain Light Rain
5:54 PM 55.9 °F 54.0 °F 93% 29.91 in 7.0 mi SSE 5.8 mph - 0.02 in Rain Light Rain
6:39 PM 55.4 °F 53.6 °F 94% 29.90 in 10.0 mi SSE 4.6 mph - 0.00 in   Overcast
6:49 PM 55.4 °F 53.6 °F 94% 29.90 in 3.0 mi SSE 4.6 mph - 0.02 in Rain Rain
6:54 PM 55.9 °F 54.0 °F 93% 29.90 in 1.8 mi South 4.6 mph - 0.04 in Rain Rain
7:04 PM 55.4 °F 53.6 °F 94% 29.90 in 3.0 mi SSE 4.6 mph - 0.02 in Rain Light Rain
7:35 PM 55.4 °F 55.4 °F 100% 29.90 in 1.8 mi Variable 5.8 mph - 0.10 in Rain Rain
7:43 PM 55.4 °F 55.4 °F 100% 29.90 in 3.0 mi SSE 5.8 mph - 0.12 in Rain Light Rain
7:54 PM 55.9 °F 55.0 °F 97% 29.90 in 7.0 mi SSE 5.8 mph - 0.12 in Rain Light Rain
8:54 PM 55.9 °F 54.0 °F 93% 29.90 in 10.0 mi SE 4.6 mph - 0.01 in   Overcast
9:54 PM 55.9 °F 54.0 °F 93% 29.90 in 10.0 mi Variable 5.8 mph - N/A   Overcast
10:54 PM 55.9 °F 53.1 °F 90% 29.91 in 10.0 mi South 9.2 mph - N/A   Overcast
11:54 PM 55.9 °F 53.1 °F 90% 29.89 in 10.0 mi Variable 5.8 mph - 0.00 in   Overcast